This demonstration page uses our WeatherBlox Daily Observations layout. Learn more.

Left ArrowRight Arrow

Hourly Observations for May 30, 2017

Temp ( °F °C ) Dew Point ( °F °C ) Humidity (%) Winds ( mph kmh ) Pressure ( in mb ) Visibility ( mi km ) Precip ( " mm )
12:52 am 00:52 Clear 63 17.2 57 13.9 81 81 Calm 30.01 1016 10 16 0.00 0.00
1:52 am 01:52 Mostly Cloudy 62 16.7 57 13.9 84 84 Calm 30.02 1017 10 16 0.00 0.00
2:52 am 02:52 Partly Cloudy 60 15.6 58 14.4 93 93 Calm 30.01 1016 10 16 0.00 0.00
3:52 am 03:52 Partly Cloudy 60 15.6 58 14.4 93 93 Calm 30.03 1017 10 16 0.00 0.00
4:52 am 04:52 Mostly Clear 59 15 56 13.3 90 90 Calm 30.03 1017 10 16 0.00 0.00
5:52 am 05:52 Clear 57 13.9 55 12.8 93 93 SE 3 6 30.05 1018 10 16 0.00 0.00
6:52 am 06:52 Sunny 60 15.6 57 13.9 90 90 Calm 30.06 1018 10 16 0.00 0.00
7:52 am 07:52 Sunny 67 19.4 59 15 76 76 Calm 30.07 1018 10 16 0.00 0.00
8:52 am 08:52 Sunny 70 21.1 56 13.3 61 61 NE 5 7 30.08 1019 10 16 0.00 0.00
9:52 am 09:52 Sunny 74 23.3 57 13.9 56 56 E 6 9 30.07 1018 10 16 0.00 0.00
10:52 am 10:52 Mostly Sunny 76 24.4 56 13.3 50 50 SSE 5 7 30.06 1018 10 16 0.00 0.00
11:52 am 11:52 Cloudy 71 21.7 59 15 66 66 NW 10 17 30.11 1020 10 16 0.00 0.00
12:52 pm 12:52 Cloudy with Light Rain 69 20.6 56 13.3 63 63 NW 7 11 30.10 1019 10 16 0.00 0.03
1:52 pm 13:52 Cloudy 71 21.7 58 14.4 63 63 S 9 15 30.08 1019 10 16 0.00 0.03
2:52 pm 14:52 Sunny 74 23.3 59 15 60 60 S 7 11 30.06 1018 10 16 0.00 0.00
3:52 pm 15:52 Sunny 76 24.4 52 11.1 43 43 S 5 7 30.05 1018 10 16 0.00 0.00
4:52 pm 16:52 Sunny 77 25 54 12.2 45 45 SSW 7 11 30.03 1017 10 16 0.00 0.00
5:52 pm 17:52 Sunny 76 24.4 55 12.8 48 48 SW 8 13 30.01 1016 10 16 0.00 0.00
6:52 pm 18:52 Sunny 75 23.9 58 14.4 55 55 S 9 15 30.00 1016 10 16 0.00 0.00
7:52 pm 19:52 Sunny 72 22.2 59 15 64 64 S 6 9 30.01 1016 10 16 0.00 0.00
8:52 pm 20:52 Clear 68 20 59 15 73 73 S 7 11 30.01 1016 10 16 0.00 0.00
9:52 pm 21:52 Clear 67 19.4 59 15 76 76 ESE 6 9 30.04 1017 10 16 0.00 0.00
10:52 pm 22:52 Clear 64 17.8 58 14.4 81 81 SE 7 11 30.04 1017 10 16 0.00 0.00
11:52 pm 23:52 Clear 65 18.3 59 15 81 81 ENE 8 13 30.06 1018 10 16 0.00 0.00

Powered by AerisWeather